| time (UTC) | temp F | wind direction | speed MPH | gust MPH | rain 1hr in | rain 24hr in | rain mn in | humidity % | barometer mb |
| 20260504034621 | 78 | 182 | 5.0 | 10.0 | 0.00 | 0.00 | 0.00 | 15 | 1002.0 |
| 20260504033128 | 79 | 214 | 2.0 | 8.0 | 0.00 | 0.00 | 0.00 | 14 | 1001.7 |
| 20260504031604 | 80 | 157 | 5.0 | 13.0 | 0.00 | 0.00 | 0.00 | 13 | 1001.4 |
| 20260504030105 | 80 | 168 | 7.0 | 12.0 | 0.00 | 0.00 | 0.00 | 13 | 1001.1 |
| 20260504024500 | 81 | 173 | 4.0 | 14.0 | 0.00 | 0.00 | 0.00 | 13 | 1001.0 |
| 20260504023105 | 81 | 213 | 6.0 | 16.0 | 0.00 | 0.00 | 0.00 | 12 | 1000.6 |
| 20260504023001 | 82 | 211 | 7.0 | 16.0 | 0.00 | 0.00 | 0.00 | 12 | 1000.7 |
| 20260504021559 | 82 | 247 | 6.0 | 13.0 | 0.00 | 0.00 | 0.00 | 12 | 1000.7 |
| 20260504021501 | 82 | 204 | 6.0 | 13.0 | 0.00 | 0.00 | 0.00 | 12 | 1000.7 |
| 20260504014559 | 83 | 203 | 5.0 | 15.0 | 0.00 | 0.00 | 0.00 | 12 | 1000.5 |
| 20260504013110 | 84 | 163 | 6.0 | 19.0 | 0.00 | 0.00 | 0.00 | 11 | 1000.7 |
| 20260504011559 | 85 | 184 | 7.0 | 12.0 | 0.00 | 0.00 | 0.00 | 12 | 1000.7 |
| 20260504010114 | 85 | 150 | 7.0 | 16.0 | 0.00 | 0.00 | 0.00 | 11 | 1000.7 |
| 20260504004626 | 87 | 180 | 8.0 | 15.0 | 0.00 | 0.00 | 0.00 | 10 | 1000.7 |
| 20260504003100 | 88 | 264 | 11.0 | 18.0 | 0.00 | 0.00 | 0.00 | 10 | 1000.7 |
| 20260504001607 | 89 | 225 | 8.0 | 18.0 | 0.00 | 0.00 | 0.00 | 10 | 1000.6 |
| 20260504000059 | 89 | 111 | 9.0 | 17.0 | 0.00 | 0.00 | 0.00 | 10 | 1001.0 |
| 20260503234600 | 88 | 140 | 9.0 | 19.0 | 0.00 | 0.00 | 0.00 | 11 | 1000.9 |
| 20260503233100 | 87 | 174 | 6.0 | 13.0 | 0.00 | 0.00 | 0.00 | 11 | 1001.0 |
| 20260503231600 | 86 | 169 | 10.0 | 19.0 | 0.00 | 0.00 | 0.00 | 11 | 1001.2 |
| 20260503230103 | 86 | 147 | 8.0 | 15.0 | 0.00 | 0.00 | 0.00 | 12 | 1001.3 |
| 20260503230000 | 86 | 159 | 8.0 | 15.0 | 0.00 | 0.00 | 0.00 | 12 | 1001.4 |
| 20260503224559 | 88 | 178 | 11.0 | 22.0 | 0.00 | 0.00 | 0.00 | 12 | 1001.6 |
| 20260503223100 | 86 | 163 | 7.0 | 17.0 | 0.00 | 0.00 | 0.00 | 12 | 1001.7 |
| 20260503221602 | 86 | 145 | 13.0 | 22.0 | 0.00 | 0.00 | 0.00 | 13 | 1002.0 |
| 20260503220058 | 86 | 207 | 8.0 | 17.0 | 0.00 | 0.00 | 0.00 | 13 | 1002.4 |
| 20260503214600 | 86 | 153 | 7.0 | 17.0 | 0.00 | 0.00 | 0.00 | 12 | 1002.5 |
| 20260503213108 | 86 | 159 | 7.0 | 20.0 | 0.00 | 0.00 | 0.00 | 12 | 1002.7 |
| 20260503211559 | 88 | 174 | 10.0 | 22.0 | 0.00 | 0.00 | 0.00 | 11 | 1003.1 |
| 20260503210112 | 90 | 146 | 12.0 | 21.0 | 0.00 | 0.00 | 0.00 | 11 | 1003.4 |
| 20260503210001 | 90 | 157 | 11.0 | 21.0 | 0.00 | 0.00 | 0.00 | 11 | 1003.4 |
| 20260503204609 | 89 | 161 | 11.0 | 21.0 | 0.00 | 0.00 | 0.00 | 11 | 1003.6 |
| 20260503204501 | 89 | 109 | 13.0 | 22.0 | 0.00 | 0.00 | 0.00 | 11 | 1003.7 |
| 20260503203106 | 90 | 173 | 8.0 | 19.0 | 0.00 | 0.00 | 0.00 | 11 | 1003.9 |
| 20260503201606 | 90 | 142 | 13.0 | 21.0 | 0.00 | 0.00 | 0.00 | 10 | 1004.1 |
| 20260503200001 | 90 | 123 | 8.0 | 18.0 | 0.00 | 0.00 | 0.00 | 10 | 1004.4 |
| 20260503194559 | 90 | 165 | 7.0 | 20.0 | 0.00 | 0.00 | 0.00 | 10 | 1004.8 |
| 20260503193101 | 90 | 157 | 8.0 | 16.0 | 0.00 | 0.00 | 0.00 | 10 | 1005.2 |
| 20260503191632 | 89 | 152 | 8.0 | 19.0 | 0.00 | 0.00 | 0.00 | 9 | 1005.5 |
| 20260503190059 | 89 | 138 | 8.0 | 15.0 | 0.00 | 0.00 | 0.00 | 9 | 1005.9 |
| 20260503184601 | 88 | 93 | 3.0 | 13.0 | 0.00 | 0.00 | 0.00 | 9 | 1006.2 |
| 20260503183115 | 86 | 336 | 2.0 | 7.0 | 0.00 | 0.00 | 0.00 | 9 | 1006.4 |
| 20260503181602 | 82 | 9 | 2.0 | 10.0 | 0.00 | 0.00 | 0.00 | 10 | 1006.6 |
| 20260503180058 | 83 | 332 | 4.0 | 10.0 | 0.00 | 0.00 | 0.00 | 9 | 1006.8 |
| 20260503180002 | 83 | 19 | 5.0 | 10.0 | 0.00 | 0.00 | 0.00 | 9 | 1006.8 |
| 20260503174604 | 82 | 355 | 4.0 | 10.0 | 0.00 | 0.00 | 0.00 | 10 | 1007.0 |
| 20260503173119 | 81 | 17 | 5.0 | 10.0 | 0.00 | 0.00 | 0.00 | 10 | 1007.4 |
| 20260503171600 | 80 | 10 | 3.0 | 8.0 | 0.00 | 0.00 | 0.00 | 10 | 1007.7 |
| 20260503120125 | 62 | 28 | 1.0 | 3.0 | 0.00 | 0.00 | 0.00 | 12 | 1007.4 |
| 20260503100105 | 63 | 129 | 3.0 | 4.0 | 0.00 | 0.00 | 0.00 | 12 | 1007.8 |
| 20260503090104 | 65 | 52 | 0.0 | 2.0 | 0.00 | 0.00 | 0.00 | 11 | 1007.8 |
| 20260503081557 | 66 | 111 | 0.0 | 2.0 | 0.00 | 0.00 | 0.00 | 11 | 1008.3 |
| 20260503071504 | 67 | 105 | 1.0 | 3.0 | 0.00 | 0.00 | 0.00 | 10 | 1008.6 |
| 20260503070110 | 67 | 138 | 2.0 | 3.0 | 0.00 | 0.00 | 0.00 | 10 | 1008.6 |
| 20260503054607 | 70 | 111 | 1.0 | 6.0 | 0.00 | 0.00 | 0.00 | 9 | 1008.6 |
| 20260503054502 | 70 | 113 | 2.0 | 6.0 | 0.00 | 0.00 | 0.00 | 9 | 1008.6 |
| 20260503053100 | 71 | 153 | 1.0 | 3.0 | 0.00 | 0.00 | 0.00 | 9 | 1008.5 |
| 20260503053001 | 71 | 131 | 1.0 | 3.0 | 0.00 | 0.00 | 0.00 | 9 | 1008.5 |
| 20260503051606 | 71 | 26 | 1.0 | 3.0 | 0.00 | 0.00 | 0.00 | 8 | 1008.5 |
| 20260503050001 | 72 | 139 | 0.0 | 2.0 | 0.00 | 0.00 | 0.00 | 8 | 1008.6 |
| 20260503044610 | 73 | 87 | 2.0 | 7.0 | 0.00 | 0.00 | 0.00 | 8 | 1008.5 |
| 20260503043100 | 74 | 96 | 1.0 | 4.0 | 0.00 | 0.00 | 0.00 | 8 | 1008.5 |
| 20260503043001 | 73 | 85 | 2.0 | 4.0 | 0.00 | 0.00 | 0.00 | 8 | 1008.5 |
| 20260503041609 | 74 | 81 | 2.0 | 4.0 | 0.00 | 0.00 | 0.00 | 8 | 1008.3 |
| 20260503040002 | 75 | 128 | 1.0 | 2.0 | 0.00 | 0.00 | 0.00 | 8 | 1008.1 |